Location: Dayton
(39.7590°N, 84.1920°W)
Time: 05:37:06
(UTC-05:00)

ATLAS CENTAUR R/B - Visible Passes

Search period start: 22 January 2018 00:00
Search period end: 01 February 2018 00:00
Orbit: 216 x 7079 km, 57.3° (Epoch: 18 January)

Date Brightness Start Highest point End Pass type
(mag) Time Alt. Az. Time Alt. Az. Time Alt. Az.
22 Jan 6.8 00:21:03 10° NW 00:56:01 59° NW 00:56:01 59° NW visible
22 Jan 7.5 03:31:52 10° NW 03:42:31 18° WNW 03:42:31 18° WNW visible
22 Jan 7.1 19:09:23 10° W 19:48:15 60° NNW 20:21:25 25° ENE visible
22 Jan 6.6 22:18:16 10° WNW 23:07:36 69° NNE 23:07:53 69° NNE visible
23 Jan 7.0 01:27:32 10° NW 01:54:22 42° WNW 01:54:22 42° WNW visible
23 Jan 7.3 17:12:05 10° SW 17:41:14 76° NW 18:29:51 10° NE visible
23 Jan 6.9 20:15:11 10° WNW 21:00:19 58° N 21:19:39 41° ENE visible
23 Jan 6.6 23:25:06 10° NW 00:06:07 71° NNW 00:06:07 71° NNW visible
24 Jan 7.3 02:34:29 10° NW 02:52:35 26° WNW 02:52:35 26° WNW visible
24 Jan 7.3 18:14:48 10° WSW 18:49:45 63° NNW 19:31:18 16° ENE visible
24 Jan 6.6 21:21:54 10° WNW 22:10:41 64° NNE 22:17:46 59° ENE visible
25 Jan 6.8 00:31:13 10° NW 01:04:14 54° WNW 01:04:14 54° WNW visible
25 Jan 7.6 03:45:11 10° NW 03:50:40 13° WNW 03:50:40 13° WNW visible
25 Jan 7.0 19:19:15 10° W 20:00:56 58° N 20:29:18 30° ENE visible
25 Jan 6.5 22:28:28 10° NW 23:15:45 76° NNE 23:15:45 76° NNE visible
26 Jan 7.1 01:37:14 10° NW 02:02:11 36° WNW 02:02:11 36° WNW visible
26 Jan 7.4 17:20:09 10° WSW 17:51:21 68° NNW 18:39:04 10° ENE visible
26 Jan 6.7 20:25:02 10° WNW 21:12:06 60° NNE 21:27:10 46° ENE visible
26 Jan 6.6 23:34:20 10° NW 00:13:35 68° NW 00:13:35 68° NW visible
27 Jan 7.4 02:44:45 10° NW 03:00:01 21° WNW 03:00:01 21° WNW visible
27 Jan 7.2 18:23:13 10° W 19:00:51 59° NNW 19:38:28 19° ENE visible
27 Jan 6.5 21:31:10 10° WNW 22:20:27 69° NNE 22:24:53 67° ENE visible
28 Jan 6.9 00:39:45 10° NW 01:11:18 48° WNW 01:11:18 48° WNW visible
28 Jan 6.9 19:27:50 10° WNW 20:12:00 58° N 20:36:05 34° ENE visible
28 Jan 6.5 22:36:49 10° NW 23:22:29 82° NNW 23:22:29 82° NNW visible
29 Jan 7.2 01:45:39 10° NW 02:08:53 30° WNW 02:08:53 30° WNW visible
29 Jan 7.3 17:27:07 10° WSW 18:00:37 63° NNW 18:46:53 10° ENE visible
29 Jan 6.6 20:33:18 10° WNW 21:21:38 64° NNE 21:33:34 52° ENE visible
29 Jan 6.6 23:41:50 10° NW 00:19:57 63° WNW 00:19:57 63° WNW visible
30 Jan 7.5 02:55:02 10° NW 03:06:20 15° WNW 03:06:20 15° WNW visible
30 Jan 7.0 18:30:25 10° W 19:10:44 58° N 19:44:32 22° ENE visible
30 Jan 6.4 21:38:38 10° NW 22:27:53 77° NE 22:30:55 75° ENE visible
31 Jan 6.9 00:46:47 10° NW 01:17:17 42° WNW 01:17:17 42° WNW visible
31 Jan 6.7 19:34:57 10° WNW 20:21:06 60° NNE 20:41:46 38° ENE visible
31 Jan 6.4 22:43:23 10° NW 23:28:08 80° W 23:28:08 80° W visible
